Theta_e
316 315 315 316 316 316 315 316 318 318 316 317 318 318 318 319 319 319 319 319 320 322 322 321 320 319 321 325 326 328 329 330 335 344 346 347 346 342 337 337 336 336 338 338
315 315 314 314 315 315 316 316 316 316 316 316 317 317 317 318 318 319 319 319 319 319 319 320 319 319 322 323 324 325 327 329 329 333 347 345 349 348 345 340 337 337 337 339
315 315 314 314 314 314 314 315 316 316 317 317 317 317 317 317 317 317 318 318 318 319 318 319 319 320 320 321 322 322 325 327 330 331 328 332 337 347 351 348 344 335 342 341
316 315 314 313 313 314 315 315 315 315 316 317 317 317 318 317 317 316 317 317 318 318 318 318 319 319 319 319 320 322 323 326 322 330 329 328 334 339 340 345 351 348 342 344
315 315 314 313 313 314 314 315 315 316 317 317 316 316 316 317 317 316 316 317 318 320 319 319 318 318 318 318 319 321 324 326 326 326 329 330 329 328 330 336 344 343 342 345
316 316 315 314 314 314 314 314 315 315 315 316 316 316 316 317 316 316 317 317 317 317 319 319 318 318 317 317 318 321 323 324 326 327 328 330 332 332 333 332 336 336 344 348
316 316 316 315 314 314 314 315 317 317 317 318 317 316 316 316 316 316 317 315 315 316 318 319 318 318 318 317 319 320 321 323 324 325 326 327 329 330 333 334 332 332 335 338
318 318 316 317 315 314 316 317 317 321 321 320 317 316 316 315 315 314 314 314 316 317 318 318 318 319 318 318 318 319 321 323 325 325 326 326 327 327 328 329 331 331 332 333
323 317 317 316 316 315 315 318 317 318 319 318 318 319 317 316 315 314 314 315 318 317 317 317 317 317 319 319 319 320 321 321 321 324 327 328 328 328 329 330 332 333 334 334
317 317 317 316 316 315 316 316 319 318 318 318 317 317 317 317 316 314 316 317 317 317 317 317 316 317 317 318 318 319 320 320 320 320 323 326 328 329 329 330 333 334 336 338
316 319 318 316 318 317 316 316 317 318 324 324 321 318 317 316 316 316 316 316 316 317 317 318 318 317 316 316 317 318 319 320 320 320 320 322 325 328 330 331 332 334 336 340
315 319 320 315 315 316 317 320 321 325 322 320 318 318 316 316 316 316 316 316 317 317 318 318 318 317 317 317 316 316 316 318 319 319 319 319 321 324 327 331 333 335 337 338
317 318 320 317 316 318 317 316 316 317 320 322 324 321 317 317 317 316 316 317 316 317 318 318 318 318 318 317 316 315 316 317 317 317 317 318 320 322 326 328 331 334 337 338
313 317 316 318 316 317 318 317 316 316 322 317 317 316 316 317 317 317 317 317 317 318 317 317 317 317 317 316 316 315 316 316 316 316 316 317 319 321 324 326 329 332 335 338
312 314 314 314 312 312 312 312 314 316 317 317 316 315 316 316 317 316 316 316 316 316 317 317 317 317 317 316 315 314 314 314 315 315 315 316 317 319 321 324 328 330 332 339
312 316 313 315 313 312 314 313 313 312 313 314 313 314 314 314 315 315 316 318 317 317 317 317 317 318 317 317 316 315 314 314 314 314 314 315 315 317 320 324 327 330 332 340
313 316 316 318 313 314 315 312 312 313 313 312 312 313 314 313 315 317 317 319 318 317 316 317 317 317 317 316 315 314 313 313 313 313 313 314 316 317 319 323 326 330 333 340
312 313 314 315 314 315 313 315 315 314 314 315 316 316 317 316 317 317 317 317 315 316 316 316 316 315 314 313 313 312 311 312 312 313 313 314 315 317 320 324 327 331 333 340
314 315 318 318 317 315 314 317 317 317 316 314 315 315 315 316 316 316 315 315 316 316 315 314 313 312 313 312 311 310 310 310 311 311 314 314 315 318 321 324 328 331 334 340
314 314 317 317 321 318 315 315 316 315 315 318 318 317 316 315 317 316 316 315 314 314 313 313 312 310 310 310 310 311 311 311 311 311 314 315 317 320 325 326 330 329 338 340
316 315 316 316 317 316 316 317 315 318 318 317 315 315 315 316 315 316 313 314 313 312 312 311 310 311 310 309 310 310 311 311 312 312 314 316 320 322 325 327 329 330 337 341
317 318 319 318 319 321 316 316 319 318 317 316 316 315 315 314 313 313 313 312 312 311 311 310 309 310 309 308 308 310 311 312 313 314 315 319 321 323 325 328 328 335 338 340
317 319 321 317 319 317 316 316 316 315 315 313 312 312 312 311 311 311 312 311 310 310 310 308 309 310 308 309 309 310 312 313 314 316 318 320 323 324 328 327 329 335 338 338
313 314 317 316 314 314 313 313 312 311 312 311 310 310 310 310 308 308 308 309 309 308 309 308 309 309 310 310 311 312 314 316 317 318 318 322 325 326 327 326 335 336 336 336
314 315 312 312 312 311 311 311 311 311 311 309 309 309 308 307 306 307 307 308 308 308 307 307 308 309 310 311 312 313 316 318 319 321 323 324 327 328 330 329 334 336 336 337
309 310 310 310 308 309 310 308 307 309 310 309 309 306 306 306 306 305 306 306 306 306 306 307 307 309 310 311 312 315 317 320 321 322 324 326 326 326 323 322 320 334 335 333
Wind_Speed
16 11 14 17 17 16 19 15 19 16 9 7 12 17 19 18 18 17 17 17 16 14 12 12 10 4 3 4 4 2 5 4 2 19 14 18 20 25 17 31 27 23 24 26
12 15 17 18 13 13 16 19 19 17 14 10 16 19 19 20 17 19 18 19 18 16 14 13 10 10 6 4 5 6 4 3 3 4 10 15 11 16 24 29 26 30 27 25
16 16 11 12 12 16 18 18 17 17 12 12 14 22 22 21 24 22 22 20 17 16 11 12 11 10 8 6 2 4 2 1 10 4 8 12 15 23 13 25 34 25 21 27
15 13 10 12 16 17 17 17 16 16 12 14 15 13 14 5 10 12 15 12 10 13 13 11 10 11 8 4 3 2 5 4 9 2 10 9 13 14 22 20 13 18 30 28
16 11 11 14 18 13 14 15 12 11 16 17 20 13 14 20 19 13 12 13 11 7 8 12 11 8 7 3 2 1 2 5 7 7 13 10 14 18 17 19 16 24 26 31
23 19 14 15 12 12 13 18 14 16 14 17 21 19 17 14 14 14 13 10 10 7 10 7 6 9 8 7 5 3 4 5 7 10 9 10 13 16 16 17 14 19 22 26
21 23 24 21 18 16 14 12 13 16 15 16 18 11 12 4 2 12 18 12 7 9 7 9 7 7 7 6 7 5 4 5 5 8 10 12 14 15 16 18 20 21 22 23
18 19 16 16 19 18 13 15 11 12 13 13 4 8 9 9 13 6 3 7 5 7 9 3 6 6 8 10 6 7 5 5 7 8 10 10 14 15 18 20 21 23 22 24
15 18 5 10 16 16 20 18 16 19 21 18 14 21 8 12 8 7 11 10 10 6 5 8 9 7 8 9 10 9 9 10 9 10 12 11 12 14 18 20 20 21 24 26
14 15 18 4 9 16 20 5 10 11 18 19 17 20 14 19 17 13 10 9 11 4 9 12 12 12 11 11 12 14 15 13 14 14 13 14 15 15 17 19 21 23 24 25
12 9 14 6 11 17 15 18 14 13 7 6 13 8 9 10 12 15 6 4 6 11 13 13 13 14 15 15 15 16 16 16 16 15 15 16 17 18 18 19 21 23 24 25
7 6 10 17 15 14 14 14 17 5 13 15 15 17 8 4 8 6 6 7 14 11 10 12 13 14 15 15 17 18 20 19 18 19 18 19 19 20 21 20 21 23 25 24
7 6 9 13 11 9 15 15 17 18 18 22 16 15 2 11 15 8 14 14 11 10 12 11 11 12 14 15 16 20 20 17 19 21 22 21 20 21 22 23 22 23 26 25
1 13 16 14 21 6 5 14 15 11 12 19 21 25 9 9 13 20 15 15 12 12 9 11 11 12 14 17 18 19 19 19 20 21 22 24 23 23 26 26 24 24 25 28
9 17 18 19 21 22 22 20 20 19 22 19 19 21 17 21 21 21 17 16 16 16 14 13 13 13 13 18 20 23 23 23 22 23 25 25 28 27 27 28 28 27 26 30
13 18 19 22 22 22 22 21 22 23 26 25 26 27 23 23 23 21 16 17 12 12 16 14 15 17 17 22 21 24 28 28 27 28 29 31 30 29 28 29 28 28 27 31
11 8 8 15 16 12 16 19 19 21 24 21 22 22 17 21 20 17 7 10 14 16 19 19 19 19 19 24 25 27 33 35 35 35 34 33 31 31 30 30 29 29 27 30
13 13 7 11 16 17 13 14 12 12 14 12 16 15 21 17 16 13 12 13 16 19 19 19 18 19 29 32 33 33 36 38 37 36 35 34 32 32 30 29 30 23 29 30
12 8 4 5 9 17 22 5 11 12 15 18 18 20 18 17 19 18 16 17 19 19 19 20 27 31 31 29 29 32 31 35 36 38 36 33 32 31 30 29 25 26 31 29
3 7 6 7 6 7 10 3 6 12 15 14 18 18 17 18 17 17 21 23 21 23 26 26 29 30 32 29 28 32 28 31 31 36 37 31 32 29 25 25 23 28 30 30
5 4 11 11 8 10 10 12 7 8 10 22 21 23 22 17 17 21 19 22 22 24 28 31 29 28 25 29 27 28 30 31 33 30 34 31 26 27 28 26 26 29 28 29
4 4 5 7 6 8 8 14 6 14 21 21 22 22 23 23 23 24 22 23 23 23 26 30 26 29 26 28 27 27 27 33 30 29 31 30 28 29 28 23 23 28 29 25
4 1 4 5 5 19 18 16 18 18 18 22 18 21 24 26 28 28 24 26 26 27 19 29 24 25 26 28 28 26 31 29 32 29 27 28 29 29 24 19 25 24 26 25
7 10 7 11 3 20 19 20 15 19 22 21 21 21 26 28 27 26 26 22 19 20 17 23 21 17 22 28 27 29 32 30 25 21 30 30 24 25 20 20 25 21 22 23
7 12 9 12 16 23 11 18 18 21 25 28 26 24 23 22 23 21 19 20 20 17 21 24 20 18 25 28 26 27 28 27 28 27 25 23 20 18 18 14 21 24 24 27
3 4 3 5 19 16 20 20 26 29 27 26 20 23 21 20 19 20 18 17 16 16 21 19 23 24 27 28 28 26 24 22 18 21 20 16 14 9 19 21 23 24 29 27
Wind_Direction
233 248 247 247 253 257 279 291 284 293 244 255 263 271 261 234 205 225 238 242 241 228 257 211 200 240 201 174 139 61 329 353 143 217 198 227 232 229 234 222 213 224 226 230
232 247 254 270 276 280 272 264 259 261 256 249 260 263 261 257 249 244 244 234 231 237 225 245 226 234 229 251 138 112 277 313 129 242 221 223 238 240 231 227 221 220 218 231
258 279 316 289 261 248 256 258 261 262 261 238 265 266 258 252 250 247 245 242 239 220 203 234 229 221 236 229 242 163 209 6 287 227 259 248 236 255 240 233 228 228 231 234
278 284 284 258 250 259 256 253 241 274 272 260 246 274 248 306 215 236 233 228 225 219 209 204 214 212 214 216 250 322 2 340 293 267 269 265 270 249 231 244 222 224 223 245
259 261 238 253 252 251 267 285 295 258 258 269 258 260 260 254 217 192 219 207 197 181 212 200 192 197 226 224 212 149 262 277 265 247 249 258 258 260 262 248 238 236 227 211
270 260 255 264 264 265 293 275 251 258 255 252 251 248 261 243 215 183 195 194 198 215 180 200 202 199 218 206 204 195 209 224 242 244 257 262 264 275 282 288 286 262 244 230
248 251 244 223 241 243 233 256 268 249 229 244 241 234 242 18 151 195 191 190 215 226 204 234 240 250 247 235 234 223 219 278 261 247 245 244 249 255 258 264 265 261 266 254
274 280 257 215 230 253 215 248 240 262 278 291 111 232 245 245 176 210 282 255 257 228 235 262 282 277 280 273 261 277 277 268 287 277 275 263 261 260 263 252 249 256 257 259
284 294 24 320 252 261 256 218 258 278 269 279 267 258 190 169 189 210 231 217 209 212 259 273 277 287 291 294 288 283 284 291 294 293 291 276 265 262 264 273 276 263 261 264
290 286 280 265 278 264 262 216 245 251 253 250 255 266 265 189 190 196 203 206 225 253 288 277 278 279 277 273 270 267 270 283 293 293 286 282 286 280 273 267 263 260 261 262
308 287 265 278 243 262 241 231 222 238 211 264 276 260 344 159 186 180 192 240 251 255 288 288 289 283 275 272 274 278 270 270 276 284 288 284 280 280 279 271 269 267 262 258
320 286 280 267 258 247 269 213 258 232 256 259 264 259 175 167 251 194 207 244 251 287 287 284 286 282 281 276 274 278 277 272 275 277 280 284 284 282 280 281 277 276 266 263
359 262 278 265 262 223 231 234 236 233 244 257 267 265 8 309 196 203 228 257 282 273 277 274 284 289 283 283 288 280 279 281 286 290 283 280 281 283 281 280 283 278 277 263
310 275 276 276 296 157 256 289 286 260 271 263 253 262 197 216 291 260 248 266 278 271 269 275 278 282 284 291 286 283 281 279 277 278 284 287 282 279 281 281 278 277 273 268
253 266 274 273 285 287 283 268 249 243 271 267 274 273 259 263 236 261 288 281 274 273 265 258 259 266 275 280 289 288 282 282 279 283 281 276 279 274 273 272 272 276 273 268
244 254 266 275 278 272 284 268 264 254 250 250 253 258 264 273 278 277 300 289 275 286 283 281 285 288 290 288 285 289 293 288 285 282 279 277 272 267 268 269 267 267 268 265
275 277 287 271 271 281 267 257 256 252 255 256 259 263 263 265 277 263 279 282 298 297 298 296 291 289 294 299 292 283 281 281 279 279 276 273 268 264 260 261 262 259 265 264
262 269 285 281 295 276 269 324 286 296 289 281 271 278 274 294 318 306 292 305 287 273 290 303 305 304 295 287 280 283 286 282 273 272 270 266 264 261 260 259 259 259 266 256
243 257 245 249 274 289 292 358 345 338 305 306 283 295 306 322 312 290 284 296 317 312 306 293 284 287 288 293 293 288 280 279 278 273 267 262 261 258 257 256 259 260 262 245
229 231 239 228 264 276 315 1 342 319 287 19 353 336 320 307 293 295 334 324 311 300 290 285 293 298 294 288 282 277 278 274 262 267 264 256 255 257 264 266 260 264 251 233
197 191 217 237 257 274 1 345 339 274 321 329 320 319 324 315 302 305 297 285 286 283 284 297 306 292 282 289 283 279 273 268 264 257 268 268 260 258 262 256 256 267 236 219
237 243 216 246 242 259 14 344 308 318 313 320 320 310 300 301 302 301 295 289 293 294 295 299 292 288 286 281 276 272 268 269 265 261 255 258 261 257 253 252 256 245 215 206
306 340 274 268 294 314 323 324 318 320 307 309 304 306 308 310 306 304 301 296 297 294 292 289 282 281 278 276 271 268 268 265 263 251 249 255 256 253 252 250 259 202 192 167
299 311 280 318 269 322 329 308 319 320 316 317 306 304 309 306 301 291 294 295 290 290 289 288 291 287 278 274 270 264 266 260 257 245 254 256 262 251 238 252 168 148 144 143
354 325 351 292 293 329 304 325 319 310 314 314 312 309 300 291 289 288 284 287 289 290 288 282 277 276 274 276 277 274 268 257 247 247 245 257 237 235 190 151 159 159 158 155
8 348 312 286 306 294 295 300 297 294 309 312 313 308 298 291 287 290 285 282 280 280 283 281 277 275 277 278 273 266 258 260 258 259 255 239 196 200 134 117 96 134 138 142